Lawrence, KS

9:35 PM CDT on August 28, 2016 (GMT -0500)
Lawrence Municipal

Weather History for KLWC - October, 2013

Change the Weather History Date:

Tuesday, October 8, 2013

  Actual Average Record
Temperature  
Mean Temperature 62 °F 59 °F  
Max Temperature 78 °F 72 °F 89 °F (2010)
Min Temperature 46 °F 46 °F 26 °F (2000)
Degree Days  
Heating Degree Days 3 7  
Month to date heating degree days 31 51  
Since 1 July heating degree days 54 114  
Cooling Degree Days 0 1  
Month to date cooling degree days 33 14  
Year to date cooling degree days 1489 1358  
Growing Degree Days 12 (Base 50)    
Moisture  
Dew Point 45 °F    
Average Humidity 59    
Maximum Humidity 86    
Minimum Humidity 31    
Precipitation  
Precipitation 0.00 in 0.09 in 0.42 in (2004)
Month to date precipitation 0.96 0.97  
Year to date precipitation 24.58 32.99  
Sea Level Pressure  
Sea Level Pressure 30.06 in    
Wind  
Wind Speed 9 mph (SE)    
Max Wind Speed 22 mph    
Max Gust Speed 29 mph    
Visibility 10 miles    
Events      
T = Trace of Precipitation, MM = Missing Value Source: NWS Daily Summary

Daily Weather History Graph

Daily Weather History Graph

Search for Another Location

Airport or City:

Trip Planner

Search our weather history database for the weather conditions in past years. The results will help you decide how hot, cold, wet, or windy it might be!

Date:

Astronomy

Oct. 08, 2013 Rise Set
Actual Time 7:23 AM CDT 6:52 PM CDT
Civil Twilight 6:57 AM CDT 7:18 PM CDT
Nautical Twilight 6:26 AM CDT 7:49 PM CDT
Astronomical Twilight 5:55 AM CDT 8:20 PM CDT
Moon 11:17 AM CDT (10/8) 9:31 PM CDT (10/8)
Length of Visible Light 12h 21m
Length of Day
11h 28m
Waxing Crescent, 16% of the Moon is Illuminated
Oct 8
Waxing Crescent
Oct 11
First Quarter
Oct 18
Full
Oct 26
Last Quarter
Nov 3
New

Hourly Weather History & Observations

Time (CDT) Temp. Windchill Dew Point Humidity Pressure Visibility Wind Dir Wind Speed Gust Speed Precip Events Conditions
12:52 AM 48.0 °F - 43.0 °F 83% 30.09 in 10.0 mi ESE 4.6 mph - N/A   Clear
1:52 AM 48.9 °F - 43.0 °F 80% 30.10 in 10.0 mi ESE 4.6 mph - N/A   Clear
2:52 AM 48.0 °F - 43.0 °F 83% 30.10 in 10.0 mi ESE 4.6 mph - N/A   Clear
3:52 AM 46.0 °F 43.9 °F 42.1 °F 86% 30.09 in 10.0 mi East 4.6 mph - N/A   Clear
4:52 AM 46.9 °F - 43.0 °F 86% 30.09 in 10.0 mi ESE 5.8 mph - N/A   Clear
5:52 AM 48.0 °F - 43.0 °F 83% 30.09 in 10.0 mi ESE 6.9 mph - N/A   Clear
6:52 AM 48.0 °F - 42.1 °F 80% 30.09 in 10.0 mi ESE 6.9 mph - N/A   Clear
7:52 AM 48.0 °F - 42.1 °F 80% 30.10 in 10.0 mi East 3.5 mph - N/A   Clear
8:52 AM 55.9 °F - 48.0 °F 75% 30.11 in 10.0 mi SE 3.5 mph - N/A   Clear
9:52 AM 64.0 °F - 48.9 °F 58% 30.11 in 10.0 mi South 6.9 mph - N/A   Clear
10:52 AM 68.0 °F - 48.0 °F 49% 30.10 in 10.0 mi South 15.0 mph 23.0 mph N/A   Clear
11:52 AM 73.0 °F - 46.9 °F 39% 30.09 in 10.0 mi South 15.0 mph 27.6 mph N/A   Clear
12:52 PM 75.9 °F - 44.1 °F 32% 30.08 in 10.0 mi South 16.1 mph 24.2 mph N/A   Clear
1:52 PM 77.0 °F - 45.0 °F 32% 30.05 in 10.0 mi South 11.5 mph 21.9 mph N/A   Clear
2:52 PM 77.0 °F - 44.1 °F 31% 30.03 in 10.0 mi South 17.3 mph - N/A   Clear
3:52 PM 77.0 °F - 45.0 °F 32% 30.01 in 10.0 mi South 16.1 mph 24.2 mph N/A   Clear
4:52 PM 77.0 °F - 46.0 °F 33% 30.00 in 10.0 mi South 13.8 mph - N/A   Clear
5:52 PM 73.9 °F - 46.0 °F 37% 30.00 in 10.0 mi South 16.1 mph - N/A   Clear
6:52 PM 66.9 °F - 46.0 °F 47% 30.01 in 10.0 mi South 10.4 mph - N/A   Clear
7:52 PM 60.1 °F - 46.0 °F 60% 30.02 in 10.0 mi SE 6.9 mph - N/A   Clear
8:52 PM 59.0 °F - 46.9 °F 64% 30.03 in 10.0 mi SE 6.9 mph - N/A   Clear
9:52 PM 57.0 °F - 46.9 °F 69% 30.03 in 10.0 mi ESE 6.9 mph - N/A   Clear
10:52 PM 55.9 °F - 46.9 °F 72% 30.03 in 10.0 mi ESE 8.1 mph - N/A   Clear
11:52 PM 55.9 °F - 48.9 °F 77% 30.03 in 10.0 mi SE 6.9 mph - N/A   Clear